Home   Weather   Buckingham   Past weeks
Flag for United Kingdom

Past Weather in Buckingham, England, United Kingdom — Yesterday and Last 2 Weeks

Now
35 °F

Chilly.


Feels Like: 29 °F
Forecast: 55 / 34 °F
Wind: 8 mph from West

Location: Church Lawford

Current Time: Mar 26, 2019 at 5:12:31 am

Latest Report: Mar 26, 2019 at 4:00 am


Visibility: 8 mi

Pressure: 30.56 "Hg

Humidity: 92%

Dew Point: 33 °F

Location of BuckinghamLocation

Past Weather in Buckingham — Graph

°F

Buckingham Temperature Yesterday

Maximum temperature yesterday: 55 °F (at 3:00 pm)
Minimum temperature yesterday: 37 °F (at 11:00 pm)
Average temperature yesterday: 46 °F

High & Low Weather Summary for the Past Weeks

 TemperatureHumidityPressure
High57 °F (Mar 20, 3:00 pm)100% (Mar 21, 7:00 am)30.59 "Hg (Mar 21, 7:00 am)
Low33 °F (Mar 26, 1:00 am)45% (Mar 24, 3:00 pm)29.26 "Hg (Mar 16, 7:00 pm)
Average47 °F80%30.08 "Hg
* Reported Mar 11 5:00 am — Mar 26 4:00 am, Buckingham. Weather by CustomWeather, © 2019

Note: Actual official high and low records may vary slightly from our data, if they occured in-between our weather recording intervals... More about our weather records

Advertising

Buckingham Weather History for the Previous 24 Hours

Scroll right to see more
 ConditionsComfort  
Time TempWeatherWind HumidityBarometerVisibility
4:00 am
Tue, Mar 26
35 °FChilly.8 mph92%30.56 "Hg8 mi
3:00 am36 °FChilly.7 mph90%30.57 "Hg8 mi
2:00 am37 °FChilly.5 mph88%30.58 "Hg11 mi
1:00 am33 °FChilly.No wind91%30.59 "Hg9 mi
12:00 am36 °FChilly.1 mph86%30.59 "Hg9 mi
11:00 pm
Mon, Mar 25
37 °FChilly.No wind80%30.58 "Hg11 mi
10:00 pm39 °FChilly.3 mph81%30.58 "Hg13 mi
9:00 pm41 °FQuite cool.5 mph75%30.58 "Hg12 mi
8:00 pm45 °FQuite cool.8 mph68%30.56 "Hg15 mi
7:00 pm46 °FCool.5 mph65%30.53 "Hg7 mi
6:00 pm51 °FCool.6 mph53%30.52 "Hg19 mi
5:00 pm53 °FCool.7 mph48%30.50 "Hg19 mi
4:00 pm54 °FCool.9 mph48%30.51 "Hg17 mi
3:00 pm55 °FCool.9 mph47%30.50 "Hg15 mi
2:00 pm53 °FCool.8 mph50%30.51 "Hg19 mi
1:00 pm53 °FCool.9 mph52%30.51 "Hg22 mi
11:00 am49 °FCool.12 mph57%30.52 "Hg14 mi
10:00 am48 °FCool.13 mph64%30.51 "Hg15 mi
9:00 am46 °FCool.14 mph71%30.50 "Hg11 mi
8:00 am43 °FQuite cool.12 mph81%30.48 "Hg9 mi
7:00 am40 °FQuite cool.10 mph86%30.45 "Hg8 mi
6:00 am39 °FChilly.10 mph84%30.43 "Hg9 mi
5:00 am40 °FChilly.10 mph82%30.41 "Hg8 mi
Weather by CustomWeather, © 2019

See weather overview